[[{"header":{"parameterUnit":"m.s-1","parameterCategory":1,"la1":30.2991,"la2":30.254,"lo1":-89.0895,"lo2":-89.0444,"dy":0.0017,"dx":0.0017,"nx":28,"ny":28,"refTime":"2024-07-26T21:00:00:Z","depth":0,"parameterNumber":2,"parameterNumberName":"U-component_of_WINDS"},"data":[0,0,0,0,0,0,0,0,0,0,0,0,0,0,0,0,0,0,0,0,0,0,0,0,0,0,0,0,0,0,0,0,0,0,0,0,0,0,0,0,0,0,0,0,0,0,0,0,0,0,0,0,0,0,0,0,0,0,3.7237,3.7238,0,3.7355,3.7356,3.7357,3.7315,3.7312,3.731,3.7307,3.743,3.7436,3.7441,0,0,0,0,0,0,0,0,0,0,0,0,0,3.6974,3.6979,3.7236,3.7238,3.7239,3.7354,3.7356,3.7358,3.7316,3.7312,3.7309,3.7306,3.7428,3.7435,3.7442,0,0,0,0,0,0,0,0,0,0,0,0,0,3.709,3.698,3.7236,3.7232,3.7233,3.7354,3.7356,3.7358,3.7316,3.7312,3.7308,3.7305,3.7426,3.7434,3.7443,3.7576,0,0,3.7469,3.7473,0,0,0,0,0,0,0,0,3.7083,3.7099,3.7231,3.7233,3.7234,3.7316,3.7308,3.7431,3.7317,3.7285,3.7307,3.7303,3.7395,3.7406,3.7437,3.7581,3.7587,3.747,3.7475,3.7479,3.7481,0,0,0,0,0,0,0,3.7075,3.7094,3.7283,3.7233,3.7235,3.7224,3.7236,3.7331,3.7361,3.7287,3.7284,3.7299,3.7395,3.7429,3.744,3.7588,3.747,3.7477,3.7483,3.7486,3.7843,3.7847,0,0,0,0,0,0,3.7066,3.7088,3.728,3.7287,3.7147,3.7232,3.7246,3.7294,3.736,3.7366,3.7302,3.7296,3.7416,3.743,3.7444,3.7601,3.7479,3.7487,3.7492,3.7839,3.7844,3.7849,0,0,0,0,0,0,3.7061,3.7084,3.7275,3.7186,3.721,3.7241,3.7295,3.7298,3.7332,3.7371,3.7376,3.7331,3.7414,3.7432,3.7542,3.7605,3.7491,3.7499,3.7834,3.784,3.7846,3.7918,0,0,0,0,0,0,3.7054,3.7082,3.7133,3.7188,3.7215,3.7371,3.7299,3.7303,3.7346,3.734,3.74,3.7406,3.7412,3.7529,3.7551,3.7614,3.7505,3.7828,3.7837,3.7844,3.791,3.7926,3.7939,0,0,0,0,0,3.7044,3.715,3.7136,3.716,3.7279,3.7375,3.739,3.7395,3.7352,3.7403,3.7427,3.7404,3.7595,3.7541,3.7565,3.7632,3.7824,3.7834,3.7844,3.7903,3.7923,3.7939,0,0,0,0,0,0,3.7104,3.7157,3.7143,3.7269,3.7318,3.7368,3.7433,3.7416,3.7479,3.747,3.7474,3.7487,3.76,3.7627,3.7567,3.7762,3.7703,3.7718,3.774,3.7759,3.7773,3.7764,3.7512,0,0,0,0,0,3.7131,3.7204,3.7247,3.7355,3.738,3.7402,3.7444,3.7443,3.7494,3.7514,3.7547,3.7598,3.7668,3.7715,3.7783,3.7914,3.7924,3.7971,3.7986,3.7998,3.8011,3.8078,3.8099,3.7881,3.7881,3.788,0,0,3.7189,3.7228,3.7274,3.7367,3.7405,3.748,3.742,3.7503,3.7558,3.7527,3.7632,3.7658,3.7714,3.7834,3.7889,3.786,3.8073,3.801,3.802,3.8026,3.809,3.8111,3.8129,3.7887,3.7886,3.7885,0,0,3.7333,3.737,3.7462,3.75,3.7557,3.7571,3.7593,3.7645,3.766,3.7766,3.7743,3.7809,3.7932,3.7972,3.8008,3.8164,3.8143,3.8186,3.8263,3.8329,3.8346,3.8361,3.8414,3.8433,3.8198,3.8199,3.8199,0,3.7398,3.751,3.7512,3.7595,3.7636,3.761,3.7702,3.774,3.7816,3.7845,3.7811,3.7962,3.7999,3.8126,3.8163,3.8195,3.8219,3.8179,3.8343,3.8358,3.8373,3.8423,3.8443,3.8203,3.8203,3.8202,3.8202,0,3.7586,3.7664,3.7731,3.7804,3.7852,3.794,3.7954,3.8003,3.7997,3.8014,3.8119,3.8162,3.8236,3.8266,3.8263,3.8392,3.8372,3.8342,3.8282,3.8398,3.8445,3.8465,3.821,3.8208,3.8207,3.8206,0,0,3.7772,3.7842,3.7866,3.7897,3.7957,3.8017,3.8102,3.8173,3.8214,3.8267,3.8337,3.844,3.8411,3.8452,3.8452,3.851,3.8627,3.8472,3.8473,3.8497,3.8769,3.8791,3.8813,3.8614,3.8618,3.8621,3.8764,0,3.7919,3.8068,3.807,3.8207,3.8277,3.8252,3.8326,3.837,3.8388,3.8449,3.8469,3.854,3.8498,3.8522,3.8578,3.8601,3.8681,3.8591,3.8678,3.8681,3.8663,3.8838,3.8862,3.8995,3.8782,3.8786,3.8788,0,3.811,3.8167,3.831,3.8356,3.8385,3.8452,3.8515,3.8576,3.8624,3.8632,3.8677,3.8667,3.8753,3.8691,3.8808,3.8746,3.8782,3.8798,3.8803,3.881,3.874,3.8848,3.9038,3.9057,3.8817,3.8815,3.8813,0,3.8228,3.834,3.844,3.8467,3.8524,3.8571,3.8597,3.8641,3.8683,3.8739,3.8765,3.8831,3.8866,3.8917,3.8924,3.8879,3.9041,3.898,3.9049,3.9048,3.9083,3.9081,3.928,3.911,3.9109,3.9109,3.9109,0,3.839,3.8478,3.8493,3.8554,3.8651,3.8652,3.8748,3.877,3.8809,3.8873,3.8857,3.8917,3.8924,3.8986,3.8993,3.9087,3.9104,3.9112,3.9112,3.9112,3.9111,3.9135,3.9125,3.9114,3.9113,3.9112,3.9111,0,3.8538,3.8552,3.8658,3.8702,3.8715,3.8784,3.8822,3.8879,3.8894,3.8975,3.8994,3.9017,3.9088,3.9101,3.9187,3.9191,3.9302,3.9294,3.9285,3.9284,3.935,3.9343,3.957,3.9599,3.9412,3.9414,3.9415,0,3.864,3.8707,3.8757,3.8798,3.8826,3.8893,3.8934,3.8938,3.8981,3.9039,3.909,3.9159,3.9215,3.933,3.9355,3.9419,3.9411,3.9486,3.9421,3.9417,3.9409,3.9404,3.9409,3.9498,3.95,3.9502,3.9503,0,3.8819,3.8821,3.8882,3.8943,3.8993,3.9042,3.9088,3.9123,3.9132,3.9182,3.9254,3.9297,3.9382,3.9451,3.9514,3.954,3.9523,3.9524,3.9542,3.9542,3.9533,3.9536,3.9317,3.9518,3.9517,3.9516,3.9515,3.9514,3.8946,3.9002,3.9045,3.9112,3.9147,3.919,3.9245,3.9265,3.9325,3.9394,3.9392,3.9471,3.9515,3.9597,3.9627,3.9688,3.9664,3.9692,3.9699,3.9705,3.971,3.9525,3.97,3.97,3.9699,3.9699,3.9699,0,3.9121,3.9147,3.9208,3.9272,3.9324,3.9302,3.9351,3.9396,3.9465,3.9507,3.9561,3.9643,3.9708,3.9736,3.98,3.9843,3.9837,3.986,3.9856,3.9861,3.9729,3.9705,3.9864,3.9864,3.9864,3.9864,3.9864,3.9864,3.9218,3.9312,3.9319,3.9429,3.9454,3.953,3.9559,3.9598,3.9631,3.9722,3.9776,3.9794,3.9829,3.9895,3.9954,3.996,3.9983,4.001,4.0013,3.9888,3.9871,3.9855,3.9833,4.0015,4.0016,4.0139,4.014,4.0141]},{"header":{"parameterUnit":"m.s-1","parameterCategory":1,"la1":30.2991,"la2":30.254,"lo1":-89.0895,"lo2":-89.0444,"dy":0.0017,"dx":0.0017,"nx":28,"ny":28,"refTime":"2024-07-26T21:00:00:Z","depth":0,"parameterNumber":3,"parameterNumberName":"V-component_of_WINDS"},"data":[0,0,0,0,0,0,0,0,0,0,0,0,0,0,0,0,0,0,0,0,0,0,0,0,0,0,0,0,0,0,0,0,0,0,0,0,0,0,0,0,0,0,0,0,0,0,0,0,0,0,0,0,0,0,0,0,0,0,1.6177,1.6177,0,1.6199,1.62,1.62,1.6171,1.617,1.6169,1.6168,1.6191,1.6193,1.6194,0,0,0,0,0,0,0,0,0,0,0,0,0,1.6109,1.6111,1.6177,1.6177,1.6178,1.6199,1.62,1.62,1.6171,1.617,1.6169,1.6168,1.6191,1.6193,1.6195,0,0,0,0,0,0,0,0,0,0,0,0,0,1.6136,1.6111,1.6177,1.6166,1.6165,1.6199,1.62,1.62,1.6172,1.617,1.6169,1.6167,1.619,1.6193,1.6195,1.6241,0,0,1.6202,1.6203,0,0,0,0,0,0,0,0,1.6134,1.6138,1.6167,1.6167,1.6166,1.6181,1.6184,1.6214,1.6172,1.6169,1.6168,1.6166,1.6189,1.6192,1.6199,1.6242,1.6243,1.6202,1.6204,1.6205,1.6205,0,0,0,0,0,0,0,1.6133,1.6137,1.6186,1.6168,1.6167,1.616,1.6162,1.619,1.6188,1.6169,1.6167,1.617,1.6188,1.6197,1.6199,1.6243,1.6202,1.6204,1.6206,1.6207,1.6323,1.6325,0,0,0,0,0,0,1.6132,1.6136,1.6185,1.6187,1.6146,1.6162,1.6165,1.6178,1.6187,1.6187,1.6172,1.6169,1.6194,1.6197,1.62,1.6254,1.6205,1.6207,1.6208,1.6322,1.6324,1.6325,0,0,0,0,0,0,1.6131,1.6137,1.6184,1.6161,1.6166,1.6165,1.618,1.6179,1.6187,1.6189,1.6189,1.6181,1.6193,1.6197,1.6231,1.6254,1.6208,1.621,1.632,1.6322,1.6324,1.6361,0,0,0,0,0,0,1.6129,1.6136,1.6154,1.6161,1.6168,1.6215,1.6182,1.6181,1.6192,1.6188,1.6197,1.6197,1.6192,1.6227,1.6233,1.6256,1.6212,1.6317,1.6321,1.6324,1.6358,1.6365,1.6371,0,0,0,0,0,1.6127,1.6164,1.6155,1.6161,1.619,1.6216,1.622,1.6212,1.6194,1.6211,1.6212,1.6197,1.6251,1.6231,1.6237,1.6262,1.6316,1.632,1.6323,1.6355,1.6364,1.6371,0,0,0,0,0,0,1.616,1.6165,1.6155,1.6196,1.6206,1.6211,1.6233,1.6221,1.6237,1.6233,1.6223,1.6225,1.6261,1.6265,1.6243,1.6306,1.628,1.6285,1.6302,1.631,1.6316,1.6314,1.6214,0,0,0,0,0,1.6173,1.6194,1.6197,1.6232,1.6238,1.6235,1.6246,1.6239,1.6249,1.6253,1.6256,1.6266,1.6285,1.6298,1.6315,1.6358,1.6359,1.6378,1.6385,1.639,1.6394,1.6416,1.6424,1.6338,1.6338,1.6337,0,0,1.6198,1.6203,1.6217,1.6239,1.6246,1.6268,1.6238,1.6263,1.6279,1.6257,1.6288,1.6291,1.6302,1.634,1.6357,1.6344,1.6418,1.6395,1.6399,1.64,1.6421,1.6429,1.6436,1.634,1.634,1.6339,0,0,1.6256,1.6262,1.6292,1.6299,1.6309,1.6307,1.6314,1.6321,1.6321,1.6353,1.6336,1.6355,1.6388,1.6396,1.6404,1.6463,1.6449,1.6469,1.6501,1.6523,1.6529,1.6535,1.6555,1.6563,1.6473,1.6473,1.6473,0,1.6286,1.6318,1.6309,1.6334,1.6344,1.6324,1.6354,1.6361,1.6377,1.6384,1.6369,1.6409,1.6415,1.6454,1.6468,1.6476,1.6483,1.6467,1.6529,1.6535,1.654,1.6559,1.6567,1.6475,1.6475,1.6475,1.6475,0,1.6354,1.6377,1.64,1.6414,1.6427,1.6454,1.6449,1.6462,1.6454,1.6453,1.6485,1.6491,1.6508,1.6517,1.651,1.6555,1.6546,1.6531,1.6504,1.6551,1.6569,1.6576,1.6479,1.6478,1.6477,1.6477,0,0,1.6435,1.6443,1.6451,1.6457,1.6466,1.6483,1.6509,1.6526,1.6538,1.6549,1.657,1.6598,1.6583,1.6592,1.6585,1.6604,1.6648,1.6585,1.6586,1.6596,1.6697,1.6708,1.6717,1.6639,1.6641,1.6642,1.6696,0,1.6491,1.6536,1.6528,1.6571,1.6591,1.6572,1.6595,1.6602,1.6602,1.6618,1.6618,1.6637,1.6616,1.6622,1.6639,1.6639,1.6668,1.6635,1.6658,1.6659,1.6656,1.6726,1.6739,1.6789,1.6703,1.6704,1.6705,0,1.6563,1.6576,1.6622,1.6626,1.6634,1.6655,1.6669,1.6685,1.6693,1.6691,1.6701,1.669,1.6715,1.6689,1.6723,1.6701,1.671,1.6711,1.6713,1.6714,1.6685,1.6729,1.6805,1.6813,1.6716,1.6715,1.6714,0,1.6616,1.6645,1.6675,1.6681,1.6687,1.6702,1.6705,1.6712,1.6722,1.6734,1.6741,1.6756,1.6764,1.6776,1.6769,1.6751,1.6804,1.6778,1.6803,1.6803,1.6815,1.6814,1.6893,1.6822,1.6822,1.6821,1.6821,0,1.668,1.6708,1.6698,1.6717,1.6748,1.6738,1.6769,1.677,1.6775,1.6794,1.6778,1.6796,1.6786,1.6803,1.6798,1.6826,1.683,1.6829,1.6827,1.683,1.683,1.6835,1.6831,1.6823,1.6823,1.6823,1.6822,0,1.6743,1.6739,1.677,1.6773,1.6775,1.6797,1.68,1.6817,1.6814,1.6838,1.6842,1.6839,1.6857,1.6852,1.6872,1.6869,1.6904,1.6898,1.6901,1.69,1.6925,1.6922,1.7009,1.702,1.6943,1.6943,1.6944,0,1.6784,1.6805,1.681,1.6821,1.6825,1.6843,1.6853,1.6844,1.6855,1.6865,1.688,1.6897,1.6911,1.6941,1.694,1.6955,1.6949,1.6978,1.6951,1.6953,1.6948,1.6947,1.6948,1.6984,1.6984,1.6985,1.6986,0,1.6856,1.6853,1.6867,1.6881,1.6893,1.6904,1.6913,1.6923,1.6914,1.6927,1.6945,1.6955,1.6975,1.6992,1.7005,1.7008,1.6995,1.6994,1.7001,1.7004,1.7004,1.7003,1.6915,1.6992,1.6992,1.6991,1.6991,1.6991,1.6909,1.6927,1.6932,1.6949,1.6955,1.6963,1.6979,1.6978,1.6993,1.7008,1.7002,1.7023,1.7029,1.7046,1.705,1.7066,1.7055,1.7065,1.7067,1.7069,1.7072,1.7002,1.7069,1.7069,1.7069,1.7068,1.7068,0,1.698,1.6982,1.6998,1.701,1.7023,1.701,1.7019,1.703,1.7049,1.7056,1.7068,1.7089,1.7105,1.7105,1.7119,1.7132,1.7126,1.7136,1.7134,1.7135,1.7082,1.7074,1.714,1.714,1.714,1.714,1.714,1.714,1.7018,1.7046,1.7043,1.7073,1.7075,1.7095,1.7101,1.7109,1.7114,1.7137,1.715,1.715,1.7154,1.7168,1.7182,1.7181,1.7187,1.7199,1.7196,1.7146,1.7139,1.7132,1.7125,1.72,1.7201,1.7248,1.7248,1.7249]}]]